sat.trackr.live / text

‹ back to catalog

STARLINK-11388 [DTC]

NORAD 62092 · 2024-220E

PAYLOAD ACTIVE UNKNOWN

§ Identity

Operator
Country
US
Launch date
2024-11-25
Launch site
AFETR
Launch vehicle
Mass (kg)
RCS (m²)

Purposes: comms

External: N2YO · Heavens-Above · Gunter

§ Orbital elements

Epoch: 2026-09-20T20:02:27.928608Z

Period
91.67 min
Inclination
43.0023°
Eccentricity
0.0001646
Mean motion
15.70905839 rev/d
Perigee alt
355.2 km
Apogee alt
357.4 km
Semi-major
6,734.4 km
B*
9.8487e-4
RAAN
306.8776°
Arg perigee
284.5124°
Mean anomaly
75.5561°
Rev number
10,564

§ Raw data

STARLINK-11388 [DTC]1 62092U 24220E   26263.83504547  .00128245  00000+0  98487-3 0  99942 62092  43.0023 306.8776 0001646 284.5124  75.5561 15.70905839105645

JSON: /api/v1/satellites/62092 · /tle

For live sub-satellite position, see the globe view (requires WebGL).

§ Visibility from observer

Set your observer location to see the next 7 days of passes ≥ 10°. The values pass through the URL so the page stays shareable.

No JS? Fill the form by hand. The geolocation button needs JavaScript.